Location: Newark
(52.7142°N, 10.5097°E)
Time: 10:58:44
(UTC+00:00)

N. Korean satellite - Visible Passes

Search period start: 22 January 2020 00:00
Search period end: 01 February 2020 00:00
Orbit: 454 x 507 km, 97.2° (Epoch: 21 January)

Date Brightness Start Highest point End Pass type
(mag) Time Alt. Az. Time Alt. Az. Time Alt. Az.
22 Jan 10.2 03:54:51 10° E 03:55:14 10° E 03:55:37 10° E visible
22 Jan 6.4 05:25:36 10° NNE 05:29:08 83° WNW 05:32:42 10° SSW visible
23 Jan 7.4 05:00:09 10° NNE 05:03:36 50° E 05:07:06 10° S visible
23 Jan 8.0 06:34:19 10° NNW 06:36:42 17° WNW 06:39:06 10° WSW visible
23 Jan 9.7 17:16:00 10° SW 17:18:11 16° W 17:20:24 10° NW visible
24 Jan 8.7 04:34:55 10° NE 04:38:00 27° E 04:41:06 10° SSE visible
24 Jan 7.4 06:08:17 10° N 06:11:23 29° WNW 06:14:32 10° SW visible
24 Jan 8.8 16:49:28 10° SSW 16:52:29 29° W 16:55:32 10° NNW visible
25 Jan 9.7 04:10:07 10° NE 04:12:18 15° E 04:14:30 10° SE visible
25 Jan 6.6 05:42:31 10° N 05:46:00 53° WNW 05:49:30 10° SSW visible
25 Jan 7.3 16:23:30 10° S 16:26:52 56° W 16:30:17 10° NNW visible
26 Jan 6.6 05:16:56 10° NNE 05:20:31 80° ESE 05:24:08 10° S visible
26 Jan 10.2 17:34:24 10° W 17:35:14 11° W 17:36:04 10° WNW visible
27 Jan 7.9 04:51:32 10° NNE 04:54:58 41° E 04:58:24 10° S visible
27 Jan 7.8 06:25:26 10° NNW 06:28:09 21° WNW 06:30:53 10° WSW visible
27 Jan 9.6 17:06:55 10° SW 17:09:28 19° W 17:12:02 10° NW visible
28 Jan 9.1 04:26:25 10° NE 04:29:19 23° E 04:32:14 10° SSE visible
28 Jan 7.1 05:59:30 10° N 06:02:48 35° WNW 06:06:08 10° SW visible
28 Jan 8.4 16:40:37 10° SSW 16:43:47 35° W 16:47:01 10° NNW visible
29 Jan 10.0 04:01:52 10° ENE 04:03:35 13° E 04:05:19 10° ESE visible
29 Jan 6.5 05:33:48 10° N 05:37:23 66° WNW 05:40:59 10° SSW visible
30 Jan 7.0 05:08:17 10° NNE 05:11:53 64° ESE 05:15:29 10° S visible
30 Jan 9.9 17:24:45 10° WSW 17:26:28 13° W 17:28:12 10° WNW visible
31 Jan 8.4 04:42:57 10° NNE 04:46:17 33° E 04:49:37 10° SSE visible
31 Jan 7.6 06:16:35 10° N 06:19:34 25° WNW 06:22:34 10° WSW visible
31 Jan 9.3 16:57:54 10° SSW 17:00:43 24° W 17:03:36 10° NW visible
